Location: Sungai Laei
(2.6000°N, 113.7167°E)
Time: 10:27:33
(UTC+00:00)

ATLAS 5 CENTAUR R/B - Pass Details

Date: 22 May 2022
Orbit: 293 x 12462 km, 20.2° (Epoch: 06 July)

Event Time Altitude Azimuth Distance (km) Brightness Sun altitude
Exits shadow 20:54:08 22° 222° (SW) 3,203 4.1 -19.5°
Maximum altitude 21:00:38 36° 173° (S) 3,952 4.9 -18.0°
Drops below altitude 10° 21:40:20 10° 114° (ESE) 13,073 8.5 -8.8°
Sets 22:09:29 0° 105° (ESE) 16,874 9.3 -2.0°
